Regional Weather Roundup
Issued by NWS Mt. Holly, NJ

Home | Current Version | Previous Version | Text Only | Print | Product List | Glossary On
Versions: 1 2 3 4 5 6 7 8 9 10 11 12 13 14 15 16 17 18 19 20 21 22 23 24 25 26 27
000
ASUS41 KPHI 232112
RWRPHI

REGIONAL WEATHER ROUNDUP
NATIONAL WEATHER SERVICE MOUNT HOLLY NJ
500 PM EDT FRI JUN 23 2017

NOTE:  "FAIR" INDICATES FEW OR NO CLOUDS BELOW 12,000 FEET WITH NO
SIGNIFICANT WEATHER AND/OR OBSTRUCTIONS TO VISIBILITY.

 * = STATION DOES NOT REPORT PRECIPITATION (E.G. RAIN, SNOW, ETC.)
        OR FOG.

NJZ015>026-232200-
SOUTHERN NEW JERSEY

CITY           SKY/WX    TMP DP  RH WIND       PRES   REMARKS
POMONA         NOT AVBL
MILLVILLE      MOSUNNY   86  76  71 SW10G17   29.71F HX  96
WRIGHTSTOWN    MOSUNNY   87  74  64 SW13G22   29.66F HX  96
MOUNT HOLLY    MOSUNNY   87  73  62 VRB7      29.68F HX  94
TRENTON        MOSUNNY   86  73  65 SW17      29.67F HX  93

$$
NJZ001>014-232200-
NORTHERN NEW JERSEY

CITY           SKY/WX    TMP DP  RH WIND       PRES   REMARKS
SUSSEX         CLOUDY    81  73  76 SW9       29.66F
ANDOVER*         N/A     81  72  74 SW8       29.67F
MORRISTOWN     PTSUNNY   82  73  74 SW7       29.67F
NEWARK         PTSUNNY   87  72  60 SW16G25   29.65F HX  93
TETERBORO      PTSUNNY   85  72  65 SW12      29.64F HX  91
CALDWELL       CLOUDY    83  71  67 SW7       29.66F
SOMERVILLE     MOSUNNY   85  74  69 VRB6G16   29.64F HX  92
ALLAIRE*       PTSUNNY   86  73  65 SW15G21   29.69F HX  93
TOMS RIVER*    PTSUNNY   87  75  67 SW17      29.70F HX  96

$$
PAZ043-044-047-054-055-060>062-066>071-232200-
EASTERN PENNSYLVANIA

CITY           SKY/WX    TMP DP  RH WIND       PRES   REMARKS
PHILADELPHIA   PTSUNNY   89  72  56 SW17      29.69F HX  96
NORTH PHILA    PTSUNNY   89  73  59 SW13G23   29.69F HX  97
BLUE BELL*     PTSUNNY   86  73  66 SW16G24   29.69S HX  93
DOYLESTOWN     PTSUNNY   85  73  67 SW12      29.67F HX  91
QUAKERTOWN*    PTSUNNY   84  75  74 S9        29.68F HX  92
PERKASIE*      MOCLDY    82  75  78 SW5       29.69F
POTTSTOWN      PTSUNNY   83  74  74 SW9G18    29.68F
LANCASTER      CLOUDY    89  76  65 S15G24    29.65F HX 100
COATESVILLE    MOSUNNY   84  75  74 S9G16     29.70F HX  92
READING        CLOUDY    78  77  96 S5        29.63F
ALLENTOWN      LGT RAIN  83  71  67 SW9       29.66F
MOUNT POCONO   CLOUDY    74  70  87 SW7       29.73F
HAZLETON         N/A     81  70  69 SW6       29.73F
LEHIGHTON      LGT RAIN  81  72  74 CALM      29.67F
WILKES BARRE   CLOUDY    80  70  71 SW6       29.65F

$$
DEZALL-MDZ008-012-015-019-020-232200-
DELAWARE AND EASTERN MARYLAND

CITY           SKY/WX    TMP DP  RH WIND       PRES   REMARKS
WILMINGTON     PTSUNNY   86  74  67 SW14G25   29.70F HX  94
DOVER          CLOUDY    86  77  75 S20G28    29.70F HX  97
GEORGETOWN     CLOUDY    86  73  65 SW13G24   29.76F HX  93
EASTON         PTSUNNY   84  73  70 SW10G18   29.78F HX  91
ABERDEEN       PTSUNNY   84  74  72 SW15      29.69F HX  92
PATUXENT       CLOUDY    86  74  67 SW15      29.75F HX  94
OCEAN CITY     CLOUDY    82  75  79 SW16G22   29.79F
WALLOPS ISLAND PTSUNNY   87  75  67 SW10G21   29.80F HX  96
CAMBRIDGE      MOSUNNY   84  75  74 S8G14     29.75F HX  92
SALISBURY      MOSUNNY   89  77  67 SW16G24   29.77F HX 101

$$
PAZ001-021-NYZ056-072-MDZ011-DCZ001-232200-
OTHER NEARBY LOCATIONS

CITY           SKY/WX    TMP DP  RH WIND       PRES   REMARKS
HARRISBURG     PTSUNNY   78  76  93 NW10      29.64F
STATE COLLEGE  RAIN      75  72  88 SW12      29.68F
WILLIAMSPORT   PTSUNNY   82  72  71 SW8       29.61F
BINGHAMTON     CLOUDY    72  66  83 SW8       29.64F
NEW YORK CITY  CLOUDY    81  72  74 VRB6      29.69F
BALTIMORE      LGT RAIN  84  73  69 SW16G23   29.70F HX  90
WASHINGTON DC  CLOUDY    84  77  79 S14       29.72F HX  94

$$




USA.gov is the U.S. government's official web portal to all federal, state and local government web resources and services.